Simultaneous Nadir Overpasses (SNOs) Predictions

Prediction of SNOs between METOP-C and LANDSAT-8 Satellite Orbit:

Table of predicted SNOs for the next 14.0 days since TLE Epoch: 7/13/2019
Index Date (METOP-C) Time (METOP-C) Lat,Lon (METOP-C) SZA (METOP-C ) Date (LANDSAT-8) Time (LANDSAT-8) Lat,Lon (LANDSAT-8) SZA (LANDSAT-8 ) Distance(km) Time Diff (sec)
1 07/13/2019 18:37:59 81.13, -59.47 61.37 07/13/2019 18:38:49 81.12, -59.64 61.37 3.08 50
2 07/13/2019 19:28:39 -81.14, 108.10 118.60 07/13/2019 19:28:15 -81.14, 108.28 118.59 3.10 24
3 07/16/2019 14:12:23 81.11, 6.51 61.75 07/16/2019 14:13:05 81.11, 6.66 61.78 2.45 42
4 07/16/2019 15:03:02 -81.13, 174.44 118.18 07/16/2019 15:02:31 -81.13, 174.60 118.18 2.82 31
5 07/19/2019 09:46:44 81.13, 73.25 62.26 07/19/2019 09:47:19 81.13, 73.30 62.29 0.94 35
6 07/19/2019 10:37:23 -81.15,-118.85 117.66 07/19/2019 10:36:45 -81.15,-118.73 117.66 2.02 38
7 07/22/2019 05:21:06 81.14, 139.98 62.83 07/22/2019 05:21:34 81.14, 139.92 62.84 0.98 28
8 07/22/2019 06:11:45 -81.16, -52.13 117.10 07/22/2019 06:11:00 -81.16, -52.09 117.11 1.02 45
9 07/25/2019 00:55:29 81.14,-153.67 63.40 07/25/2019 00:55:50 81.13,-153.84 63.38 3.10 21




NCC Satellite Simultaneous Nadir Overpasses (SNOs) Prediction Service
